Weather History for Doha, Qatar

Change the Weather History Date:

Wednesday, May 22, 2013

  Actual Average Record
Temperature  
Mean Temperature 96 °F -  
Max Temperature 106 °F 105 °F 111 °F (2011)
Min Temperature 85 °F 81 °F 80 °F (1999)
Cooling Degree Days 30    
Growing Degree Days 46 (Base 50)    
Moisture  
Dew Point 66 °F    
Average Humidity 43    
Maximum Humidity 58    
Minimum Humidity 13    
Precipitation  
Precipitation 0.00 in 0.00 in - ()
Sea Level Pressure  
Sea Level Pressure 29.71 in    
Wind  
Wind Speed 8 mph ()    
Max Wind Speed 15 mph    
Max Gust Speed -    
Visibility 5.5 miles    
Events      
Averages and records for this station are not official NWS values.
T = Trace of Precipitation, MM = Missing Value Source: Averaged Metar Reports

Daily Weather History Graph

Daily Weather History Graph

Search for Another Location

Airport:

Trip Planner

Search our weather history database for the weather conditions in past years. The results will help you decide how hot, cold, wet, or windy it might be!

Date:

Astronomy

May. 22, 2013 Rise Set
Actual Time 4:45 AM AST 6:15 PM AST
Civil Twilight 4:20 AM AST 6:40 PM AST
Nautical Twilight 3:50 AM AST 7:10 PM AST
Astronomical Twilight 3:19 AM AST 7:41 PM AST
Moon 3:25 PM AST (5/22) 2:16 AM AST (5/22)
Length of Visible Light 14h 19m
Length of Day
13h 29m
Waxing Gibbous, 89% of the Moon is Illuminated
May 22
Waxing Gibbous
May 25
Full
May 31
Last Quarter
Jun 8
New
Jun 16
First Quarter

Hourly Weather History & Observations

Time (AST) Temp. Heat Index Dew Point Humidity Pressure Visibility Wind Dir Wind Speed Gust Speed Precip Events Conditions
12:00 AM 87.8 °F 91.4 °F 68.0 °F 52% 29.68 in - SSE 9.2 mph - N/A   Clear
1:00 AM 86.0 °F 90.4 °F 69.8 °F 58% 29.68 in - SSW 8.1 mph - N/A   Clear
2:00 AM 86.0 °F 90.4 °F 69.8 °F 58% 29.65 in - South 8.1 mph - N/A   Clear
3:00 AM 86.0 °F 89.4 °F 68.0 °F 55% 29.65 in - South 6.9 mph - N/A   Clear
3:30 AM 86.0 °F 88.2 °F 66.2 °F 51% 29.68 in - South 5.8 mph - N/A   Clear
4:00 AM 86.0 °F 87.3 °F 64.4 °F 48% 29.68 in - South 5.8 mph - N/A   Clear
4:30 AM 86.0 °F 89.4 °F 68.0 °F 55% 29.68 in - SSW 6.9 mph - N/A   Clear
5:00 AM 86.0 °F 90.4 °F 69.8 °F 58% 29.68 in - SSW 5.8 mph - N/A   Clear
5:30 AM 86.0 °F 90.4 °F 69.8 °F 58% 29.68 in - SSW 5.8 mph - N/A   Clear
6:00 AM 86.0 °F 89.4 °F 68.0 °F 55% 29.71 in - SSW 6.9 mph - N/A   Clear
6:30 AM 87.8 °F 90.4 °F 66.2 °F 49% 29.71 in 5.6 mi SSW 6.9 mph - N/A   Unknown
7:00 AM 89.6 °F 90.1 °F 62.6 °F 40% 29.71 in 5.6 mi SSW 8.1 mph - N/A   Unknown
7:30 AM 91.4 °F - 51.8 °F 26% 29.74 in 5.6 mi South 8.1 mph - N/A   Unknown
8:00 AM 93.2 °F 92.6 °F 59.0 °F 32% 29.74 in - South 9.2 mph - N/A   Clear
9:00 AM 99 °F - 54 °F 14% 29.76 in 6 mi SSW 9.2 mph - -  
9:30 AM 100.4 °F - 50.0 °F 18% 29.74 in 5.0 mi SSW 10.4 mph - N/A   Unknown
10:00 AM 102.2 °F - 44.6 °F 14% 29.74 in 5.0 mi SSW 9.2 mph - N/A   Unknown
10:30 AM 105.8 °F - 44.6 °F 13% 29.74 in 5.6 mi SSW 9.2 mph - N/A   Unknown
11:00 AM 102.2 °F 103.6 °F 60.8 °F 26% 29.74 in 5.6 mi ESE 10.4 mph - N/A   Unknown
11:30 AM 100.4 °F 99.7 °F 57.2 °F 24% 29.74 in 5.6 mi SE 12.7 mph - N/A   Unknown
12:00 PM 96.8 °F 101.8 °F 68.0 °F 39% 29.74 in - ESE 13.8 mph - N/A   Clear
12:30 PM 96.8 °F 103.1 °F 69.8 °F 41% 29.74 in - ESE 15.0 mph - N/A   Clear
1:00 PM 95.0 °F 99.5 °F 68.0 °F 41% 29.71 in - East 11.5 mph - N/A   Clear
1:30 PM 95.0 °F 103.2 °F 71.6 °F 47% 29.71 in - East 11.5 mph - N/A   Clear
2:00 PM 95.0 °F 98.5 °F 66.2 °F 39% 29.71 in - East 8.1 mph - N/A   Clear
2:30 PM 93.2 °F 98.8 °F 69.8 °F 46% 29.71 in - East 12.7 mph - N/A   Clear
3:00 PM 94 °F - 69 °F 35% 29.70 in 6 mi East 11.5 mph - -   Scattered Clouds
3:00 PM 93.2 °F 98.8 °F 69.8 °F 46% 29.68 in - East 11.5 mph - N/A   Clear
4:00 PM 93.2 °F 100.5 °F 71.6 °F 49% 29.68 in 5.0 mi East 9.2 mph - N/A   Unknown
5:00 PM 91.4 °F 98.4 °F 71.6 °F 52% 29.68 in 5.0 mi East 11.5 mph - N/A   Unknown
5:30 PM 91.4 °F 98.4 °F 71.6 °F 52% 29.68 in 5.0 mi East 9.2 mph - N/A   Unknown
6:00 PM 91.4 °F 95.4 °F 68.0 °F 46% 29.68 in 5.0 mi ESE 5.8 mph - N/A   Unknown
7:00 PM 89.6 °F 93.4 °F 68.0 °F 49% 29.68 in 5.6 mi East 8.1 mph - N/A   Unknown
7:30 PM 89.6 °F 94.7 °F 69.8 °F 52% 29.68 in 5.6 mi ESE 6.9 mph - N/A   Unknown
8:00 PM 89.6 °F 94.7 °F 69.8 °F 52% 29.71 in 5.6 mi ENE 5.8 mph - N/A   Unknown
8:30 PM 91.4 °F 94.0 °F 66.2 °F 43% 29.71 in 5.6 mi Variable 2.3 mph - N/A   Unknown
9:00 PM 90 °F - 67 °F 37% 29.74 in 6 mi North 6.9 mph - -  
9:00 PM 89.6 °F 93.4 °F 68.0 °F 49% 29.71 in - North 6.9 mph - N/A   Clear
9:30 PM 89.6 °F 92.2 °F 66.2 °F 46% 29.74 in - NNW 8.1 mph - N/A   Clear
10:00 PM 89.6 °F 92.2 °F 66.2 °F 46% 29.74 in - NNW 8.1 mph - N/A   Clear
11:00 PM 91.4 °F 100.1 °F 73.4 °F 55% 29.74 in - North 3.5 mph - N/A   Clear
11:30 PM 89.6 °F 94.7 °F 69.8 °F 52% 29.74 in - North 2.3 mph - N/A   Clear